• Join FlightAware (Why Join?)
  • Login
  • US Flag 
04:25AM EST


 

Airport Tracker/Info


-or-


 

Live Flight TrackerFlight Track Log ✈ EJA677P ✈ 06-Apr-2013 ✈ KVGC - KHPN

Flight Track Log - Related Links

Times and Time Zones

All times are in EDT time to prevent confusion due to time zone crossing. See the EJA677P flight status page for this flight to view local times or setup timezone preferences in your user account.

Time Position Orientation Groundspeed Altitude Reporting Facility
EDT Latitude Longitude Course Direction KTS MPH feet Rate Location/Type
12:22PM 42.8586 -75.6125 223° Southwest 200 230 4,000  Level Boston Center
12:23PM 42.8153 -75.6669 223° Southwest 206 237 7,900 2,977 Climbing Boston Center
12:24PM 42.7450 -75.5728 135° Southeast 182 209 10,600 2,585 Climbing Boston Center
12:25PM 42.6789 -75.4678 131° Southeast 296 341 13,500 2,924 Climbing Boston Center
12:26PM 42.6089 -75.3600 131° Southeast 330 380 16,400 1,736 Climbing Boston Center
12:27PM 42.5328 -75.2381 130° Southeast 379 436 17,000 300 Climbing Boston Center
12:28PM 42.4564 -75.1164 130° Southeast 414 476 17,000  Level Boston Center
12:29PM 42.3778 -74.9978 132° Southeast 420 483 17,000  Level Boston Center
12:30PM 42.2992 -74.8794 132° Southeast 425 489 17,000  Level Boston Center
12:31PM 42.2225 -74.7614 131° Southeast 425 489 17,000  Level Boston Center
12:32PM 42.1456 -74.6411 131° Southeast 425 489 17,000  Level Boston Center
12:33PM 42.0667 -74.5208 131° Southeast 425 489 17,000  Level Boston Center
12:34PM 41.9875 -74.3953 130° Southeast 430 495 17,000  Level Boston Center
12:35PM 41.9083 -74.2756 132° Southeast 425 489 17,000  Level Boston Center
12:36PM 41.8392 -74.1650 130° Southeast 425 489 17,000 -508 Level Boston Center
12:37PM 41.7519 -73.9928 124° Southeast 430 495 15,900 -1,983 Descending Boston Center
12:38PM 41.6931 -73.8858 126° Southeast 414 476 13,100 -2,900 Descending Boston Center
12:39PM 41.5892 -73.8472 164° South 352 405 10,100 -2,651 Descending Boston Center
12:40PM 41.4833 -73.8667 188° South 309 356 7,400 -1,953 Descending New York TRACON
12:41PM 41.4000 -73.8500 171° South 299 344 5,900 -1,421 Descending New York TRACON
12:42PM 41.3500 -73.8000 143° Southeast 267 307 4,700 -1,400 Descending New York TRACON
12:43PM 41.2833 -73.7500 151° Southeast 260 299 3,100 -810 Descending New York TRACON
12:44PM 41.2333 -73.7000 143° Southeast 252 290 3,000 -53 Descending New York TRACON
12:45PM 41.1833 -73.6500 143° Southeast 249 287 3,000  Level New York TRACON
12:46PM 41.1167 -73.6000 151° Southeast 254 292 3,000 -100 Level New York TRACON
12:47PM 41.0667 -73.5500 143° Southeast 225 259 2,800 -500 Descending New York TRACON
12:48PM 41.0167 -73.5167 153° Southeast 215 247 2,000 -400 Descending New York TRACON
12:49PM 40.9667 -73.5500 207° Southwest 212 244 2,000  Level New York TRACON
12:50PM 40.9667 -73.6167 270° West 179 206 2,000  Level New York TRACON